,,,PA_Meas_PMT16A,,PR_Meas_QMR101_102,,RH_Meas_QMH101,,SR_Meas_QMS101,,TA_Meas_QMH101,,GenWind,,GenWind,
date,time,status,PA,status,PR,status,RH,status,SR,status,TA,status,DirAvg,status,SpdAvg,
2014-06-29, 00:00:05,VALID,1010.5,VALID,0,VALID,104,VALID,0,VALID,24.0466,VALID,146,VALID,0,
2014-06-29, 00:01:05,VALID,1010.48,VALID,0,VALID,104,VALID,0,VALID,24.0058,VALID,146,VALID,0,
2014-06-29, 00:02:05,VALID,1010.44,VALID,0,VALID,104,VALID,0,VALID,24.0271,VALID,146,VALID,0,
2014-06-29, 00:03:05,VALID,1010.48,VALID,0,VALID,104,VALID,0,VALID,24.0058,VALID,146,VALID,0,
2014-06-29, 00:04:05,VALID,1010.46,VALID,0,VALID,104,VALID,0,VALID,23.9863,VALID,146,VALID,0,
2014-06-29, 00:05:05,VALID,1010.45,VALID,0,VALID,104,VALID,0,VALID,23.9668,VALID,146,VALID,0,
2014-06-29, 00:06:05,VALID,1010.44,VALID,0,VALID,104,VALID,0,VALID,23.9473,VALID,146,VALID,0,
2014-06-29, 00:07:05,VALID,1010.45,VALID,0,VALID,104,VALID,0,VALID,23.9668,VALID,146,VALID,0,
2014-06-29, 00:08:05,VALID,1010.45,VALID,0,VALID,104,VALID,0,VALID,23.9473,VALID,146,VALID,0,
2014-06-29, 00:09:05,VALID,1010.44,VALID,0,VALID,104,VALID,0,VALID,23.9473,VALID,146,VALID,0,
2014-06-29, 00:10:05,VALID,1010.42,VALID,0,VALID,104,VALID,0,VALID,23.9278,VALID,146,VALID,0,
2014-06-29, 00:11:05,VALID,1010.41,VALID,0,VALID,104,VALID,0,VALID,23.9278,VALID,146,VALID,0,
2014-06-29, 00:12:05,VALID,1010.39,VALID,0,VALID,104,VALID,0,VALID,23.9278,VALID,146,VALID,0,
2014-06-29, 00:13:05,VALID,1010.37,VALID,0,VALID,104,VALID,0,VALID,23.9084,VALID,146,VALID,0,
2014-06-29, 00:14:05,VALID,1010.33,VALID,0,VALID,104,VALID,0,VALID,23.9084,VALID,146,VALID,0,
2014-06-29, 00:15:05,VALID,1010.34,VALID,0,VALID,104,VALID,0,VALID,23.9084,VALID,146,VALID,0,
2014-06-29, 00:16:05,VALID,1010.31,VALID,0,VALID,104,VALID,0,VALID,23.9084,VALID,146,VALID,0,
2014-06-29, 00:17:05,VALID,1010.28,VALID,0,VALID,104,VALID,0,VALID,23.9084,VALID,146,VALID,0,
2014-06-29, 00:18:05,VALID,1010.31,VALID,0,VALID,104,VALID,0,VALID,23.8889,VALID,146,VALID,0,
2014-06-29, 00:19:05,VALID,1010.28,VALID,0,VALID,104,VALID,0,VALID,23.9102,VALID,146,VALID,0,
2014-06-29, 00:20:05,VALID,1010.32,VALID,0,VALID,104,VALID,0,VALID,23.8889,VALID,146,VALID,0,
2014-06-29, 00:21:05,VALID,1010.31,VALID,0,VALID,104,VALID,0,VALID,23.8694,VALID,146,VALID,0,
2014-06-29, 00:22:05,VALID,1010.3,VALID,0,VALID,104,VALID,0,VALID,23.8694,VALID,146,VALID,0,
2014-06-29, 00:23:05,VALID,1010.3,VALID,0,VALID,104,VALID,0,VALID,23.8481,VALID,146,VALID,0,
2014-06-29, 00:24:05,VALID,1010.29,VALID,0,VALID,104,VALID,0,VALID,23.8694,VALID,146,VALID,0,
2014-06-29, 00:25:05,VALID,1010.25,VALID,0,VALID,104,VALID,0,VALID,23.8499,VALID,146,VALID,0,
2014-06-29, 00:26:05,VALID,1010.26,VALID,0,VALID,104,VALID,0,VALID,23.8304,VALID,146,VALID,0,
2014-06-29, 00:27:05,VALID,1010.23,VALID,0,VALID,104,VALID,0,VALID,23.8322,VALID,146,VALID,0,
2014-06-29, 00:28:05,VALID,1010.25,VALID,0,VALID,104,VALID,0,VALID,23.8109,VALID,146,VALID,0,
2014-06-29, 00:29:05,VALID,1010.23,VALID,0,VALID,104,VALID,0,VALID,23.7914,VALID,146,VALID,0,
2014-06-29, 00:30:05,VALID,1010.2,VALID,0,VALID,104,VALID,0,VALID,23.772,VALID,146,VALID,0,
2014-06-29, 00:31:05,VALID,1010.2,VALID,0,VALID,104,VALID,0,VALID,23.7525,VALID,146,VALID,0,
2014-06-29, 00:32:05,VALID,1010.19,VALID,0,VALID,104,VALID,0,VALID,23.7525,VALID,146,VALID,0,
2014-06-29, 00:33:05,VALID,1010.19,VALID,0,VALID,104,VALID,0,VALID,23.7525,VALID,146,VALID,0,
2014-06-29, 00:34:05,VALID,1010.19,VALID,0,VALID,104,VALID,0,VALID,23.7525,VALID,146,VALID,0,
2014-06-29, 00:35:05,VALID,1010.17,VALID,0,VALID,104,VALID,0,VALID,23.7525,VALID,146,VALID,0,
2014-06-29, 00:36:05,VALID,1010.17,VALID,0,VALID,104,VALID,0,VALID,23.7525,VALID,146,VALID,0,
2014-06-29, 00:37:05,VALID,1010.15,VALID,0,VALID,104,VALID,0,VALID,23.7738,VALID,146,VALID,0,
2014-06-29, 00:38:05,VALID,1010.12,VALID,0,VALID,104,VALID,0,VALID,23.7932,VALID,146,VALID,0,
2014-06-29, 00:39:05,VALID,1010.13,VALID,0,VALID,104,VALID,0,VALID,23.7738,VALID,146,VALID,0,
2014-06-29, 00:40:05,VALID,1010.11,VALID,0,VALID,104,VALID,0,VALID,23.7525,VALID,146,VALID,0,
2014-06-29, 00:41:05,VALID,1010.07,VALID,0,VALID,104,VALID,0,VALID,23.7525,VALID,146,VALID,0,
2014-06-29, 00:42:05,VALID,1010.08,VALID,0,VALID,104,VALID,0,VALID,23.7525,VALID,146,VALID,0,
2014-06-29, 00:43:05,VALID,1010.02,VALID,0,VALID,104,VALID,0,VALID,23.7543,VALID,146,VALID,0,
2014-06-29, 00:44:05,VALID,1010.04,VALID,0,VALID,104,VALID,0,VALID,23.7348,VALID,146,VALID,0,
2014-06-29, 00:45:05,VALID,1010.02,VALID,0,VALID,104,VALID,0,VALID,23.7135,VALID,146,VALID,0,
2014-06-29, 00:46:05,VALID,1010.01,VALID,0,VALID,104,VALID,0,VALID,23.7135,VALID,146,VALID,0,
2014-06-29, 00:47:05,VALID,1009.99,VALID,0,VALID,104,VALID,0,VALID,23.733,VALID,146,VALID,0,
2014-06-29, 00:48:05,VALID,1009.97,VALID,0,VALID,104,VALID,0,VALID,23.733,VALID,146,VALID,0,
2014-06-29, 00:49:05,VALID,1009.97,VALID,0,VALID,104,VALID,0,VALID,23.7135,VALID,146,VALID,0,
2014-06-29, 00:50:05,VALID,1009.95,VALID,0,VALID,104,VALID,0,VALID,23.733,VALID,146,VALID,0,
2014-06-29, 00:51:05,VALID,1009.92,VALID,0,VALID,104,VALID,0,VALID,23.7348,VALID,146,VALID,0,
2014-06-29, 00:52:05,VALID,1009.93,VALID,0,VALID,104,VALID,0,VALID,23.694,VALID,146,VALID,0,
2014-06-29, 00:53:05,VALID,1009.89,VALID,0,VALID,104,VALID,0,VALID,23.694,VALID,146,VALID,0,
2014-06-29, 00:54:05,VALID,1009.88,VALID,0,VALID,104,VALID,0,VALID,23.6745,VALID,146,VALID,0,
2014-06-29, 00:55:05,VALID,1009.88,VALID,0,VALID,104,VALID,0,VALID,23.655,VALID,146,VALID,0,
2014-06-29, 00:56:05,VALID,1009.9,VALID,0,VALID,104,VALID,0,VALID,23.6763,VALID,146,VALID,0,
2014-06-29, 00:57:05,VALID,1009.9,VALID,0,VALID,104,VALID,0,VALID,23.6745,VALID,146,VALID,0,
2014-06-29, 00:58:05,VALID,1009.9,VALID,0,VALID,104,VALID,0,VALID,23.6745,VALID,146,VALID,0,
2014-06-29, 00:59:05,VALID,1009.87,VALID,0,VALID,104,VALID,0,VALID,23.6745,VALID,146,VALID,0,
2014-06-29, 01:00:05,VALID,1009.88,VALID,0,VALID,104,VALID,0,VALID,23.655,VALID,146,VALID,0,
2014-06-29, 01:01:05,VALID,1009.83,VALID,0,VALID,104,VALID,0,VALID,23.6356,VALID,146,VALID,0,
2014-06-29, 01:02:05,VALID,1009.83,VALID,0,VALID,104,VALID,0,VALID,23.6161,VALID,146,VALID,0,
2014-06-29, 01:03:05,VALID,1009.83,VALID,0,VALID,104,VALID,0,VALID,23.6161,VALID,146,VALID,0,
2014-06-29, 01:04:05,VALID,1009.81,VALID,0,VALID,104,VALID,0,VALID,23.5966,VALID,146,VALID,0,
2014-06-29, 01:05:05,VALID,1009.78,VALID,0,INVALID,109.033,VALID,0,VALID,23.5966,VALID,146,VALID,0,
2014-06-29, 01:06:05,VALID,1009.79,VALID,0,INVALID,109.003,VALID,0,VALID,23.5966,VALID,146,VALID,0,
2014-06-29, 01:07:05,VALID,1009.77,VALID,0,INVALID,109.056,VALID,0,VALID,23.5966,VALID,146,VALID,0,
2014-06-29, 01:08:05,VALID,1009.74,VALID,0,INVALID,109.094,VALID,0,VALID,23.5966,VALID,146,VALID,0,
2014-06-29, 01:09:05,VALID,1009.72,VALID,0,INVALID,109.117,VALID,0.112112,VALID,23.5966,VALID,146,VALID,0,
2014-06-29, 01:10:05,VALID,1009.7,VALID,0,INVALID,109.163,VALID,0,VALID,23.6161,VALID,146,VALID,0,
2014-06-29, 01:11:05,VALID,1009.69,VALID,0,INVALID,109.17,VALID,0,VALID,23.6179,VALID,146,VALID,0,
2014-06-29, 01:12:05,VALID,1009.67,VALID,0,INVALID,109.208,VALID,0,VALID,23.5771,VALID,146,VALID,0,
2014-06-29, 01:13:05,VALID,1009.66,VALID,0,INVALID,109.208,VALID,0,VALID,23.5984,VALID,146,VALID,0,
2014-06-29, 01:14:05,VALID,1009.64,VALID,0,INVALID,109.254,VALID,0,VALID,23.5771,VALID,146,VALID,0,
2014-06-29, 01:15:05,VALID,1009.66,VALID,0,INVALID,109.3,VALID,0,VALID,23.5576,VALID,146,VALID,0,
2014-06-29, 01:16:05,VALID,1009.64,VALID,0,INVALID,109.338,VALID,0,VALID,23.5381,VALID,146,VALID,0,
2014-06-29, 01:17:05,VALID,1009.67,VALID,0,INVALID,109.361,VALID,0,VALID,23.5594,VALID,146,VALID,0,
2014-06-29, 01:18:05,VALID,1009.66,VALID,0,INVALID,109.376,VALID,0,VALID,23.5594,VALID,146,VALID,0,
2014-06-29, 01:19:05,VALID,1009.64,VALID,0,INVALID,109.437,VALID,0,VALID,23.5399,VALID,146,VALID,0,
2014-06-29, 01:20:05,VALID,1009.62,VALID,0,INVALID,109.491,VALID,0,VALID,23.5399,VALID,146,VALID,0,
2014-06-29, 01:21:05,VALID,1009.6,VALID,0,INVALID,109.513,VALID,0,VALID,23.5186,VALID,146,VALID,0,
2014-06-29, 01:22:05,VALID,1009.61,VALID,0,INVALID,109.574,VALID,0,VALID,23.4992,VALID,146,VALID,0,
2014-06-29, 01:23:05,VALID,1009.58,VALID,0,INVALID,109.574,VALID,0,VALID,23.4797,VALID,146,VALID,0,
2014-06-29, 01:24:05,VALID,1009.56,VALID,0,INVALID,109.597,VALID,0,VALID,23.4992,VALID,146,VALID,0,
2014-06-29, 01:25:05,VALID,1009.53,VALID,0,INVALID,109.582,VALID,0,VALID,23.5204,VALID,146,VALID,0,
2014-06-29, 01:26:05,VALID,1009.56,VALID,0,INVALID,109.643,VALID,0,VALID,23.4797,VALID,146,VALID,0,
2014-06-29, 01:27:05,VALID,1009.53,VALID,0,INVALID,109.628,VALID,0,VALID,23.4602,VALID,146,VALID,0,
2014-06-29, 01:28:05,VALID,1009.51,VALID,0,INVALID,109.666,VALID,0,VALID,23.4407,VALID,146,VALID,0,
2014-06-29, 01:29:05,VALID,1009.53,VALID,0,INVALID,109.651,VALID,0,VALID,23.4212,VALID,146,VALID,0,
2014-06-29, 01:30:05,VALID,1009.51,VALID,0,INVALID,109.658,VALID,0,VALID,23.4212,VALID,146,VALID,0,
2014-06-29, 01:31:05,VALID,1009.52,VALID,0,INVALID,109.689,VALID,0,VALID,23.4017,VALID,146,VALID,0,
2014-06-29, 01:32:05,VALID,1009.51,VALID,0,INVALID,109.704,VALID,0,VALID,23.4017,VALID,146,VALID,0,
2014-06-29, 01:33:05,VALID,1009.53,VALID,0,INVALID,109.735,VALID,0,VALID,23.384,VALID,146,VALID,0,
2014-06-29, 01:34:05,VALID,1009.49,VALID,0,INVALID,109.727,VALID,0,VALID,23.384,VALID,146,VALID,0,
2014-06-29, 01:35:05,VALID,1009.46,VALID,0,INVALID,109.742,VALID,0,VALID,23.3433,VALID,146,VALID,0,
2014-06-29, 01:36:05,VALID,1009.47,VALID,0,INVALID,109.735,VALID,0,VALID,23.3628,VALID,146,VALID,0,
2014-06-29, 01:37:05,VALID,1009.46,VALID,0,INVALID,109.735,VALID,0,VALID,23.4035,VALID,146,VALID,0,
2014-06-29, 01:38:05,VALID,1009.45,VALID,0,INVALID,109.735,VALID,0,VALID,23.384,VALID,146,VALID,0,
2014-06-29, 01:39:05,VALID,1009.45,VALID,0,INVALID,109.765,VALID,0,VALID,23.3628,VALID,146,VALID,0,
2014-06-29, 01:40:05,VALID,1009.41,VALID,0,INVALID,109.773,VALID,0,VALID,23.3645,VALID,146,VALID,0,
2014-06-29, 01:41:05,VALID,1009.4,VALID,0,INVALID,109.757,VALID,0,VALID,23.3433,VALID,146,VALID,0,
2014-06-29, 01:42:04,VALID,1009.4,VALID,0,INVALID,109.788,VALID,0,VALID,23.3451,VALID,146,VALID,0,
2014-06-29, 01:43:04,VALID,1009.4,VALID,0,INVALID,109.818,VALID,0,VALID,23.2848,VALID,146,VALID,0,
2014-06-29, 01:44:04,VALID,1009.38,VALID,0,INVALID,109.841,VALID,0,VALID,23.2671,VALID,146,VALID,0,
2014-06-29, 01:45:04,VALID,1009.38,VALID,0,INVALID,109.841,VALID,0,VALID,23.2459,VALID,146,VALID,0,
2014-06-29, 01:46:04,VALID,1009.35,VALID,0,INVALID,109.834,VALID,0,VALID,23.2264,VALID,146,VALID,0,
2014-06-29, 01:47:04,VALID,1009.34,VALID,0,INVALID,109.826,VALID,0,VALID,23.2476,VALID,146,VALID,0,
2014-06-29, 01:48:04,VALID,1009.31,VALID,0,INVALID,109.818,VALID,0,VALID,23.2671,VALID,146,VALID,0,
2014-06-29, 01:49:04,VALID,1009.31,VALID,0,INVALID,109.834,VALID,0,VALID,23.2476,VALID,146,VALID,0,
2014-06-29, 01:50:04,VALID,1009.3,VALID,0,INVALID,109.803,VALID,0,VALID,23.2866,VALID,146,VALID,0,
2014-06-29, 01:51:04,VALID,1009.26,VALID,0,INVALID,109.811,VALID,0,VALID,23.3043,VALID,146,VALID,0,
2014-06-29, 01:52:04,VALID,1009.28,VALID,0,INVALID,109.796,VALID,0,VALID,23.3043,VALID,146,VALID,0,
2014-06-29, 01:53:04,VALID,1009.24,VALID,0,INVALID,109.818,VALID,0,VALID,23.3256,VALID,146,VALID,0,
2014-06-29, 01:54:04,VALID,1009.25,VALID,0,INVALID,109.803,VALID,0,VALID,23.3256,VALID,146,VALID,0,
2014-06-29, 01:55:04,VALID,1009.25,VALID,0,INVALID,109.872,VALID,0,VALID,23.3061,VALID,146,VALID,0,
2014-06-29, 01:56:04,VALID,1009.23,VALID,0,INVALID,109.879,VALID,0,VALID,23.2654,VALID,146,VALID,0,
2014-06-29, 01:57:04,VALID,1009.26,VALID,0,INVALID,109.864,VALID,0,VALID,23.3061,VALID,146,VALID,0,
2014-06-29, 01:58:04,VALID,1009.22,VALID,0,INVALID,109.803,VALID,0,VALID,23.3256,VALID,146,VALID,0,
2014-06-29, 01:59:04,VALID,1009.2,VALID,0,INVALID,109.757,VALID,0,VALID,23.3645,VALID,146,VALID,0,
2014-06-29, 02:00:04,VALID,1009.2,VALID,0,INVALID,109.742,VALID,0,VALID,23.384,VALID,146,VALID,0,
2014-06-29, 02:01:04,VALID,1009.2,VALID,0,INVALID,109.735,VALID,0,VALID,23.4017,VALID,146,VALID,0,
2014-06-29, 02:02:04,VALID,1009.21,VALID,0,INVALID,109.712,VALID,0,VALID,23.423,VALID,146,VALID,0,
2014-06-29, 02:03:04,VALID,1009.22,VALID,0,INVALID,109.704,VALID,0,VALID,23.4212,VALID,146,VALID,0,
2014-06-29, 02:04:04,VALID,1009.25,VALID,0,INVALID,109.658,VALID,0,VALID,23.4602,VALID,146,VALID,0,
2014-06-29, 02:05:04,VALID,1009.25,VALID,0,INVALID,109.635,VALID,0,VALID,23.4797,VALID,146,VALID,0,
2014-06-29, 02:06:04,VALID,1009.27,VALID,0,INVALID,109.651,VALID,0,VALID,23.4992,VALID,146,VALID,0,
2014-06-29, 02:07:04,VALID,1009.26,VALID,0,INVALID,109.696,VALID,0,VALID,23.4992,VALID,146,VALID,0,
2014-06-29, 02:08:04,VALID,1009.28,VALID,0,INVALID,109.719,VALID,0,VALID,23.4797,VALID,146,VALID,0,
2014-06-29, 02:09:04,VALID,1009.31,VALID,0,INVALID,109.742,VALID,0,VALID,23.4797,VALID,146,VALID,0,
2014-06-29, 02:10:04,VALID,1009.31,VALID,0,INVALID,109.757,VALID,0,VALID,23.4602,VALID,146,VALID,0,
2014-06-29, 02:11:04,VALID,1009.33,VALID,0,INVALID,109.757,VALID,0,VALID,23.4815,VALID,146,VALID,0,
2014-06-29, 02:12:04,VALID,1009.32,VALID,0,INVALID,109.788,VALID,0,VALID,23.4602,VALID,146,VALID,0,
2014-06-29, 02:13:04,VALID,1009.3,VALID,0,INVALID,109.811,VALID,0,VALID,23.4407,VALID,146,VALID,0,
2014-06-29, 02:14:04,VALID,1009.33,VALID,0,INVALID,109.826,VALID,0,VALID,23.4212,VALID,117,VALID,0,
2014-06-29, 02:15:04,VALID,1009.32,VALID,0,INVALID,109.826,VALID,0,VALID,23.4212,VALID,103,VALID,0,
2014-06-29, 02:16:04,VALID,1009.3,VALID,0,INVALID,109.834,VALID,0,VALID,23.4017,VALID,103,VALID,0,
2014-06-29, 02:17:04,VALID,1009.34,VALID,0,INVALID,109.834,VALID,0,VALID,23.423,VALID,103,VALID,0,
2014-06-29, 02:18:04,VALID,1009.35,VALID,0,INVALID,109.857,VALID,0,VALID,23.3823,VALID,103,VALID,0,
2014-06-29, 02:19:04,VALID,1009.32,VALID,0,INVALID,109.857,VALID,0,VALID,23.3628,VALID,103,VALID,0,
2014-06-29, 02:20:04,VALID,1009.33,VALID,0,INVALID,109.849,VALID,0,VALID,23.3433,VALID,103,VALID,0,
2014-06-29, 02:21:04,VALID,1009.33,VALID,0,INVALID,109.872,VALID,0,VALID,23.3433,VALID,103,VALID,0,
2014-06-29, 02:22:04,VALID,1009.31,VALID,0,INVALID,109.879,VALID,0,VALID,23.3256,VALID,103,VALID,0,
2014-06-29, 02:23:04,VALID,1009.3,VALID,0,INVALID,109.864,VALID,0,VALID,23.3043,VALID,103,VALID,0,
2014-06-29, 02:24:04,VALID,1009.32,VALID,0,INVALID,109.857,VALID,0,VALID,23.3256,VALID,103,VALID,0,
2014-06-29, 02:25:04,VALID,1009.28,VALID,0,INVALID,109.849,VALID,0,VALID,23.3061,VALID,103,VALID,0,
2014-06-29, 02:26:04,VALID,1009.25,VALID,0,INVALID,109.849,VALID,0,VALID,23.3043,VALID,103,VALID,0,
2014-06-29, 02:27:04,VALID,1009.23,VALID,0,INVALID,109.826,VALID,0,VALID,23.3043,VALID,103,VALID,0,
2014-06-29, 02:28:04,VALID,1009.24,VALID,0,INVALID,109.818,VALID,0,VALID,23.2848,VALID,103,VALID,0,
2014-06-29, 02:29:04,VALID,1009.2,VALID,0,INVALID,109.849,VALID,0,VALID,23.2848,VALID,103,VALID,0,
2014-06-29, 02:30:04,VALID,1009.19,VALID,0,INVALID,109.826,VALID,0,VALID,23.2848,VALID,103,VALID,0,
2014-06-29, 02:31:04,VALID,1009.18,VALID,0,INVALID,109.834,VALID,0,VALID,23.2848,VALID,103,VALID,0,
2014-06-29, 02:32:04,VALID,1009.16,VALID,0,INVALID,109.818,VALID,0,VALID,23.2848,VALID,103,VALID,0,
2014-06-29, 02:33:04,VALID,1009.17,VALID,0,INVALID,109.811,VALID,0,VALID,23.2848,VALID,103,VALID,0,
2014-06-29, 02:34:04,VALID,1009.17,VALID,0,INVALID,109.75,VALID,0.112112,VALID,23.3043,VALID,103,VALID,0,
2014-06-29, 02:35:04,VALID,1009.15,VALID,0,INVALID,109.78,VALID,0,VALID,23.3043,VALID,103,VALID,0,
2014-06-29, 02:36:04,VALID,1009.16,VALID,0,INVALID,109.765,VALID,0,VALID,23.2831,VALID,103,VALID,0,
2014-06-29, 02:37:04,VALID,1009.18,VALID,0,INVALID,109.796,VALID,0,VALID,23.3043,VALID,103,VALID,0,
2014-06-29, 02:38:04,VALID,1009.18,VALID,0,INVALID,109.811,VALID,0,VALID,23.2848,VALID,103,VALID,0,
2014-06-29, 02:39:04,VALID,1009.16,VALID,0,INVALID,109.803,VALID,0.112112,VALID,23.2848,VALID,103,VALID,0,
2014-06-29, 02:40:04,VALID,1009.15,VALID,0,INVALID,109.765,VALID,0,VALID,23.2848,VALID,103,VALID,0,
2014-06-29, 02:41:04,VALID,1009.15,VALID,0,INVALID,109.773,VALID,0,VALID,23.2848,VALID,103,VALID,0,
2014-06-29, 02:42:04,VALID,1009.18,VALID,0,INVALID,109.788,VALID,0,VALID,23.2654,VALID,103,VALID,0,
2014-06-29, 02:43:04,VALID,1009.16,VALID,0,INVALID,109.803,VALID,0,VALID,23.2654,VALID,103,VALID,0,
2014-06-29, 02:44:04,VALID,1009.15,VALID,0,INVALID,109.796,VALID,0,VALID,23.2459,VALID,103,VALID,0,
2014-06-29, 02:45:04,VALID,1009.17,VALID,0,INVALID,109.78,VALID,0,VALID,23.2654,VALID,103,VALID,0,
2014-06-29, 02:46:04,VALID,1009.16,VALID,0,INVALID,109.765,VALID,0,VALID,23.2654,VALID,103,VALID,0,
2014-06-29, 02:47:04,VALID,1009.16,VALID,0,INVALID,109.735,VALID,0,VALID,23.2654,VALID,103,VALID,0,
2014-06-29, 02:48:04,VALID,1009.18,VALID,0,INVALID,109.818,VALID,0,VALID,23.2654,VALID,103,VALID,0,
2014-06-29, 02:49:04,VALID,1009.22,VALID,0,INVALID,109.773,VALID,0,VALID,23.2654,VALID,103,VALID,0,
2014-06-29, 02:50:04,VALID,1009.21,VALID,0,INVALID,109.727,VALID,0,VALID,23.2848,VALID,103,VALID,0,
2014-06-29, 02:51:04,VALID,1009.2,VALID,0,INVALID,109.727,VALID,0.112112,VALID,23.2848,VALID,103,VALID,0,
2014-06-29, 02:52:04,VALID,1009.18,VALID,0,INVALID,109.727,VALID,0,VALID,23.2636,VALID,103,VALID,0,
2014-06-29, 02:53:04,VALID,1009.2,VALID,0,INVALID,109.765,VALID,0,VALID,23.2848,VALID,103,VALID,0,
2014-06-29, 02:54:04,VALID,1009.17,VALID,0,INVALID,109.696,VALID,0,VALID,23.2848,VALID,103,VALID,0,
2014-06-29, 02:55:04,VALID,1009.16,VALID,0,INVALID,109.719,VALID,0,VALID,23.3043,VALID,103,VALID,0,
2014-06-29, 02:56:04,VALID,1009.16,VALID,0,INVALID,109.696,VALID,0,VALID,23.3043,VALID,103,VALID,0,
2014-06-29, 02:57:04,VALID,1009.14,VALID,0,INVALID,109.681,VALID,0,VALID,23.3043,VALID,103,VALID,0,
2014-06-29, 02:58:04,VALID,1009.14,VALID,0,INVALID,109.666,VALID,0,VALID,23.3043,VALID,103,VALID,0,
2014-06-29, 02:59:04,VALID,1009.14,VALID,0,INVALID,109.712,VALID,0,VALID,23.2848,VALID,103,VALID,0,
2014-06-29, 03:00:04,VALID,1009.15,VALID,0,INVALID,109.75,VALID,0,VALID,23.2441,VALID,103,VALID,0,
2014-06-29, 03:01:04,VALID,1009.13,VALID,0,INVALID,109.735,VALID,0,VALID,23.2654,VALID,103,VALID,0,
2014-06-29, 03:02:04,VALID,1009.14,VALID,0,INVALID,109.696,VALID,0,VALID,23.2848,VALID,103,VALID,0,
2014-06-29, 03:03:04,VALID,1009.14,VALID,0,INVALID,109.643,VALID,0,VALID,23.3043,VALID,103,VALID,0,
2014-06-29, 03:04:04,VALID,1009.15,VALID,0,INVALID,109.658,VALID,0,VALID,23.3043,VALID,103,VALID,0,
2014-06-29, 03:05:04,VALID,1009.15,VALID,0,INVALID,109.704,VALID,0,VALID,23.2848,VALID,103,VALID,0,
2014-06-29, 03:06:04,VALID,1009.14,VALID,0,INVALID,109.719,VALID,0,VALID,23.2848,VALID,103,VALID,0,
2014-06-29, 03:07:04,VALID,1009.13,VALID,0,INVALID,109.712,VALID,0.112112,VALID,23.2848,VALID,103,VALID,0,
2014-06-29, 03:08:04,VALID,1009.13,VALID,0,INVALID,109.704,VALID,0,VALID,23.2831,VALID,103,VALID,0,
2014-06-29, 03:09:04,VALID,1009.09,VALID,0,INVALID,109.712,VALID,0.112112,VALID,23.3043,VALID,103,VALID,0,
2014-06-29, 03:10:04,VALID,1009.09,VALID,0,INVALID,109.704,VALID,0,VALID,23.2848,VALID,103,VALID,0,
2014-06-29, 03:11:04,VALID,1009.11,VALID,0,INVALID,109.727,VALID,0,VALID,23.2848,VALID,103,VALID,0,
2014-06-29, 03:12:04,VALID,1009.11,VALID,0,INVALID,109.75,VALID,0,VALID,23.2654,VALID,103,VALID,0,
2014-06-29, 03:13:04,VALID,1009.09,VALID,0,INVALID,109.735,VALID,0,VALID,23.2459,VALID,103,VALID,0,
2014-06-29, 03:14:04,VALID,1009.13,VALID,0,INVALID,109.742,VALID,0,VALID,23.2459,VALID,103,VALID,0,
2014-06-29, 03:15:04,VALID,1009.1,VALID,0,INVALID,109.712,VALID,0,VALID,23.2654,VALID,103,VALID,0,
2014-06-29, 03:16:04,VALID,1009.1,VALID,0,INVALID,109.696,VALID,0,VALID,23.2654,VALID,103,VALID,0,
2014-06-29, 03:17:04,VALID,1009.14,VALID,0,INVALID,109.651,VALID,0,VALID,23.2848,VALID,103,VALID,0,
2014-06-29, 03:18:04,VALID,1009.15,VALID,0,INVALID,109.651,VALID,0,VALID,23.3043,VALID,103,VALID,0,
2014-06-29, 03:19:04,VALID,1009.12,VALID,0,INVALID,109.635,VALID,0,VALID,23.3238,VALID,103,VALID,0,
2014-06-29, 03:20:04,VALID,1009.13,VALID,0,INVALID,109.666,VALID,0,VALID,23.3238,VALID,103,VALID,0,
2014-06-29, 03:21:04,VALID,1009.15,VALID,0,INVALID,109.689,VALID,0,VALID,23.3043,VALID,103,VALID,0,
2014-06-29, 03:22:04,VALID,1009.15,VALID,0,INVALID,109.704,VALID,0,VALID,23.2848,VALID,103,VALID,0,
2014-06-29, 03:23:04,VALID,1009.14,VALID,0,INVALID,109.689,VALID,0,VALID,23.2654,VALID,103,VALID,0,
2014-06-29, 03:24:04,VALID,1009.15,VALID,0,INVALID,109.765,VALID,0,VALID,23.2264,VALID,103,VALID,0,
2014-06-29, 03:25:04,VALID,1009.15,VALID,0,INVALID,109.788,VALID,0,VALID,23.2087,VALID,103,VALID,0,
2014-06-29, 03:26:04,VALID,1009.17,VALID,0,INVALID,109.818,VALID,0.112112,VALID,23.1467,VALID,103,VALID,0,
2014-06-29, 03:27:04,VALID,1009.15,VALID,0,INVALID,109.826,VALID,0,VALID,23.1272,VALID,103,VALID,0,
2014-06-29, 03:28:04,VALID,1009.16,VALID,0,INVALID,109.788,VALID,0,VALID,23.1679,VALID,103,VALID,0,
2014-06-29, 03:29:04,VALID,1009.17,VALID,0,INVALID,109.757,VALID,0.112112,VALID,23.1679,VALID,103,VALID,0,
2014-06-29, 03:30:04,VALID,1009.16,VALID,0,INVALID,109.773,VALID,0,VALID,23.1679,VALID,103,VALID,0,
2014-06-29, 03:31:04,VALID,1009.16,VALID,0,INVALID,109.712,VALID,0.112112,VALID,23.2069,VALID,103,VALID,0,
2014-06-29, 03:32:04,VALID,1009.17,VALID,0,INVALID,109.666,VALID,0,VALID,23.2459,VALID,103,VALID,0,
2014-06-29, 03:33:04,VALID,1009.21,VALID,0,INVALID,109.681,VALID,0.112112,VALID,23.2459,VALID,103,VALID,0,
2014-06-29, 03:34:04,VALID,1009.19,VALID,0,INVALID,109.689,VALID,0,VALID,23.2459,VALID,103,VALID,0,
2014-06-29, 03:35:04,VALID,1009.21,VALID,0,INVALID,109.674,VALID,0.112112,VALID,23.2441,VALID,103,VALID,0,
2014-06-29, 03:36:04,VALID,1009.23,VALID,0,INVALID,109.674,VALID,0,VALID,23.2654,VALID,103,VALID,0,
2014-06-29, 03:37:04,VALID,1009.19,VALID,0,INVALID,109.628,VALID,0,VALID,23.3043,VALID,103,VALID,0,
2014-06-29, 03:38:04,VALID,1009.19,VALID,0,INVALID,109.62,VALID,0,VALID,23.3433,VALID,103,VALID,0,
2014-06-29, 03:39:04,VALID,1009.18,VALID,0,INVALID,109.574,VALID,0.112112,VALID,23.3628,VALID,103,VALID,0,
2014-06-29, 03:40:04,VALID,1009.16,VALID,0,INVALID,109.552,VALID,0,VALID,23.4017,VALID,103,VALID,0,
2014-06-29, 03:41:04,VALID,1009.17,VALID,0,INVALID,109.544,VALID,0,VALID,23.4,VALID,103,VALID,0,
2014-06-29, 03:42:04,VALID,1009.16,VALID,0,INVALID,109.513,VALID,0.112112,VALID,23.4194,VALID,103,VALID,0,
2014-06-29, 03:43:04,VALID,1009.16,VALID,0,INVALID,109.498,VALID,0,VALID,23.4602,VALID,103,VALID,0,
2014-06-29, 03:44:04,VALID,1009.15,VALID,0,INVALID,109.529,VALID,0,VALID,23.4407,VALID,103,VALID,0,
2014-06-29, 03:45:04,VALID,1009.14,VALID,0,INVALID,109.513,VALID,0,VALID,23.4407,VALID,103,VALID,0,
2014-06-29, 03:46:04,VALID,1009.15,VALID,0,INVALID,109.529,VALID,0,VALID,23.4407,VALID,103,VALID,0,
2014-06-29, 03:47:04,VALID,1009.12,VALID,0,INVALID,109.529,VALID,0,VALID,23.4602,VALID,103,VALID,0,
2014-06-29, 03:48:04,VALID,1009.12,VALID,0,INVALID,109.491,VALID,0.112112,VALID,23.4389,VALID,103,VALID,0,
2014-06-29, 03:49:04,VALID,1009.1,VALID,0,INVALID,109.513,VALID,0.112112,VALID,23.4602,VALID,103,VALID,0,
2014-06-29, 03:50:04,VALID,1009.11,VALID,0,INVALID,109.536,VALID,0,VALID,23.4407,VALID,103,VALID,0,
2014-06-29, 03:51:04,VALID,1009.08,VALID,0,INVALID,109.552,VALID,0.112112,VALID,23.4194,VALID,103,VALID,0,
2014-06-29, 03:52:04,VALID,1009.04,VALID,0,INVALID,109.536,VALID,0.112112,VALID,23.4,VALID,103,VALID,0,
2014-06-29, 03:53:04,VALID,1009.03,VALID,0,INVALID,109.552,VALID,0,VALID,23.4212,VALID,103,VALID,0,
2014-06-29, 03:54:04,VALID,1009.05,VALID,0,INVALID,109.567,VALID,0,VALID,23.4212,VALID,103,VALID,0,
2014-06-29, 03:55:04,VALID,1009.06,VALID,0,INVALID,109.559,VALID,0,VALID,23.3805,VALID,103,VALID,0,
2014-06-29, 03:56:04,VALID,1009.05,VALID,0,INVALID,109.544,VALID,0,VALID,23.4017,VALID,103,VALID,0,
2014-06-29, 03:57:04,VALID,1009.09,VALID,0,INVALID,109.59,VALID,0,VALID,23.3805,VALID,103,VALID,0,